Location: Newark
(1.2833°S, 36.8167°E)
Time: 16:15:56
(UTC+00:00)

N. Korean satellite - Visible Passes

Search period start: 26 September 2020 00:00
Search period end: 06 October 2020 00:00
Orbit: 455 x 503 km, 97.2° (Epoch: 26 September)

Date Brightness Start Highest point End Pass type
(mag) Time Alt. Az. Time Alt. Az. Time Alt. Az.
26 Sep 9.8 02:00:11 10° ENE 02:02:13 15° E 02:04:15 10° SE visible
28 Sep 6.6 02:39:54 10° NNE 02:43:23 79° E 02:46:50 10° S visible
29 Sep 8.9 02:14:28 10° NE 02:17:25 26° E 02:20:20 10° SSE visible
01 Oct 6.6 02:55:11 10° N 02:58:34 51° W 03:01:55 10° SSW visible
02 Oct 7.5 02:29:14 10° NNE 02:32:34 48° E 02:35:54 10° S visible
03 Oct 9.6 02:04:15 10° ENE 02:06:36 17° E 02:08:56 10° SE visible
05 Oct 6.4 02:44:16 10° N 02:47:42 84° W 02:51:08 10° SSW visible
